Location: Cheching
(60.0667°N, 164.2167°W)
Time: 10:31:06
(UTC+00:00)

LilacSat-2 - Visible Passes

Search period start: 17 January 2021 00:00
Search period end: 27 January 2021 00:00
Orbit: 512 x 534 km, 97.5° (Epoch: 17 January)

Date Brightness Start Highest point End Pass type
(mag) Time Alt. Az. Time Alt. Az. Time Alt. Az.
17 Jan ? 03:47:28 10° S 03:51:13 64° WSW 03:55:01 10° NNW visible
17 Jan ? 05:25:05 10° W 05:26:14 11° W 05:27:23 10° WNW visible
17 Jan ? 16:44:32 10° NNE 16:48:16 49° E 16:52:01 10° S visible
17 Jan ? 18:19:00 10° N 18:22:21 29° WNW 18:25:42 10° WSW visible
18 Jan ? 03:34:54 10° SSE 03:38:40 83° WSW 03:42:30 10° NNW visible
18 Jan ? 05:11:29 10° WSW 05:13:32 14° W 05:15:36 10° NW visible
18 Jan ? 16:32:03 10° NNE 16:35:41 38° E 16:39:19 10° SSE visible
18 Jan ? 18:06:22 10° N 18:09:54 35° WNW 18:13:26 10° SW visible
19 Jan ? 03:22:22 10° SSE 03:26:09 77° ENE 03:29:59 10° NNW visible
19 Jan ? 04:58:15 10° SW 05:00:52 18° W 05:03:29 10° NW visible
19 Jan ? 16:19:38 10° NNE 16:23:05 30° E 16:26:31 10° SSE visible
19 Jan ? 17:53:46 10° N 17:57:26 44° WNW 18:01:07 10° SW visible
20 Jan ? 04:45:12 10° SW 04:48:12 22° W 04:51:13 10° NW visible
20 Jan ? 16:07:15 10° NE 16:10:27 24° E 16:13:40 10° SSE visible
20 Jan ? 17:41:10 10° N 17:44:57 55° WNW 17:48:44 10° SW visible
21 Jan ? 04:32:17 10° SSW 04:35:33 27° W 04:38:52 10° NNW visible
21 Jan ? 15:54:56 10° NE 15:57:49 20° E 16:00:41 10° SE visible
21 Jan ? 17:28:36 10° NNE 17:32:27 71° WNW 17:36:18 10° SSW visible
22 Jan ? 04:19:27 10° SSW 04:22:56 34° W 04:26:28 10° NNW visible
22 Jan ? 15:42:43 10° NE 15:45:09 16° E 15:47:34 10° SE visible
22 Jan ? 17:16:03 10° NNE 17:19:56 89° WNW 17:23:49 10° SSW visible
23 Jan ? 04:06:42 10° S 04:10:20 44° W 04:14:02 10° NNW visible
23 Jan ? 15:30:41 10° ENE 15:32:28 13° E 15:34:14 10° ESE visible
23 Jan ? 17:03:31 10° NNE 17:07:24 72° ESE 17:11:16 10° S visible
24 Jan ? 03:54:02 10° S 03:57:46 56° WSW 04:01:33 10° NNW visible
24 Jan ? 16:51:01 10° NNE 16:54:50 56° E 16:58:39 10° S visible
24 Jan ? 18:25:35 10° N 18:28:50 26° WNW 18:32:06 10° WSW visible
25 Jan ? 03:41:25 10° S 03:45:12 73° WSW 03:49:03 10° NNW visible
25 Jan ? 05:18:26 10° WSW 05:20:09 13° W 05:21:52 10° WNW visible
25 Jan ? 16:38:32 10° NNE 16:42:15 43° E 16:45:59 10° S visible
25 Jan ? 18:12:56 10° N 18:16:24 32° WNW 18:19:52 10° SW visible
26 Jan ? 05:05:04 10° SW 05:07:27 16° W 05:09:51 10° NW visible
26 Jan ? 16:26:05 10° NNE 16:29:40 34° E 16:33:14 10° SSE visible
26 Jan ? 18:00:19 10° N 18:03:57 39° WNW 18:07:34 10° SW visible
